User: anonymous   Login
Location: Caltech
(34.1382°N, 118.1253°W)
Time: 08:16:31
(UTC-08:00)
Language:

Cosmos 1833 Rocket - Orbit

View from above orbital plane
View from above orbital plane
View from above satellite
View from above satellite

Ground track
Ground track

The orbit data is extracted from the following two-line orbital elements,

1 17590U 87027B   14324.56432630  .00000316  00000-0  18219-3 0  8295
2 17590 071.0036 328.4805 0007371 290.4485 069.5847 14.16660954431044
Epoch (UTC): 20 November 2014 13:32:37
Eccentricity: 0.0007371
inclination: 71.0036°
perigee height: 831 km
apogee height: 842 km
right ascension of ascending node: 328.4805°
argument of perigee: 290.4485°
revolutions per day: 14.16660954
mean anomaly at epoch: 69.5847°
orbit number at epoch: 43104

The dashed part of the orbit path shows where the satellite is in the earth's shadow,  

DLR